TimeMDT,TemperatureF,Dew PointF,Humidity,Sea Level PressureIn,VisibilityMPH,Wind Direction,Wind SpeedMPH,Gust SpeedMPH,PrecipitationIn,Events,Conditions,WindDirDegrees,DateUTC
12:56 AM,51.1,46.9,86,29.75,10.0,WSW,5.8,-,N/A,,Mostly Cloudy,240,2014-05-18 06:56:00
1:56 AM,48.0,44.1,86,29.76,10.0,WNW,3.5,-,N/A,,Clear,300,2014-05-18 07:56:00
2:56 AM,48.0,44.1,86,29.74,10.0,NW,3.5,-,N/A,,Scattered Clouds,320,2014-05-18 08:56:00
3:56 AM,46.0,44.1,93,29.73,10.0,South,9.2,-,N/A,,Clear,190,2014-05-18 09:56:00
4:56 AM,45.0,42.1,90,29.70,10.0,North,3.5,-,N/A,,Clear,360,2014-05-18 10:56:00
5:56 AM,45.0,43.0,93,29.68,10.0,Calm,Calm,-,N/A,,Mostly Cloudy,0,2014-05-18 11:56:00
6:56 AM,46.0,44.1,93,29.70,10.0,NW,4.6,-,N/A,,Scattered Clouds,320,2014-05-18 12:56:00
7:56 AM,46.9,44.1,90,29.71,10.0,Calm,Calm,-,N/A,,Scattered Clouds,0,2014-05-18 13:56:00
8:56 AM,50.0,46.0,86,29.70,10.0,NW,6.9,-,N/A,,Overcast,320,2014-05-18 14:56:00
9:56 AM,50.0,46.0,86,29.71,10.0,NW,4.6,-,0.00,,Overcast,310,2014-05-18 15:56:00
10:56 AM,51.1,46.9,86,29.70,10.0,East,4.6,-,0.01,,Overcast,80,2014-05-18 16:56:00
11:56 AM,55.0,46.9,74,29.65,10.0,East,6.9,-,0.00,,Mostly Cloudy,90,2014-05-18 17:56:00
12:56 PM,57.0,43.0,59,29.61,10.0,East,6.9,-,N/A,,Mostly Cloudy,80,2014-05-18 18:56:00
1:56 PM,54.0,43.0,66,29.63,7.0,SW,3.5,-,0.02,Rain,Light Rain,220,2014-05-18 19:56:00
2:52 PM,48.2,44.6,87,29.69,6.0,NNW,12.7,-,0.02,Rain-Thunderstorm,Light Rain,340,2014-05-18 20:52:00
2:56 PM,48.9,44.1,83,29.68,6.0,NNW,12.7,-,0.03,Rain-Thunderstorm,Light Rain,330,2014-05-18 20:56:00
3:12 PM,46.0,42.1,86,29.75,1.8,WNW,19.6,39.1,0.05,Rain-Thunderstorm,Rain,290,2014-05-18 21:12:00
3:24 PM,46.0,43.0,89,29.75,1.8,WNW,11.5,24.2,0.13,Rain,Rain,300,2014-05-18 21:24:00
3:32 PM,46.0,43.0,89,29.72,2.5,NE,16.1,-,0.16,Rain,Rain,40,2014-05-18 21:32:00
3:37 PM,46.0,43.0,89,29.73,5.0,NE,12.7,-,0.17,Rain,Light Rain,50,2014-05-18 21:37:00
3:51 PM,46.4,44.6,93,29.76,10.0,Variable,5.8,-,0.17,,Overcast,0,2014-05-18 21:51:00
3:56 PM,46.9,43.0,86,29.74,10.0,NNE,5.8,-,0.17,,Overcast,30,2014-05-18 21:56:00
4:56 PM,46.9,44.1,90,29.75,6.0,South,9.2,-,0.06,Rain,Light Rain,180,2014-05-18 22:56:00
5:56 PM,48.0,44.1,86,29.74,10.0,SE,13.8,-,0.05,,Overcast,130,2014-05-18 23:56:00
6:03 PM,48.9,45.0,86,29.76,10.0,SE,13.8,-,N/A,,Overcast,140,2014-05-19 00:03:00
6:56 PM,50.0,43.0,77,29.74,10.0,East,6.9,-,N/A,,Scattered Clouds,90,2014-05-19 00:56:00
7:56 PM,51.1,42.1,71,29.74,10.0,East,4.6,-,N/A,,Partly Cloudy,90,2014-05-19 01:56:00
8:56 PM,46.9,39.9,77,29.74,10.0,Calm,Calm,-,N/A,,Partly Cloudy,0,2014-05-19 02:56:00
9:56 PM,43.0,39.9,89,29.77,10.0,WNW,3.5,-,N/A,,Scattered Clouds,300,2014-05-19 03:56:00
10:56 PM,46.0,39.0,76,29.78,10.0,ENE,9.2,-,0.06,,Overcast,60,2014-05-19 04:56:00
11:56 PM,42.8,39.2,87,29.81,10.0,South,8.1,-,N/A,,Clear,180,2014-05-19 05:56:00